Location: Costa Valle Imagna
(45.8000°N, 9.5000°E)
Time: 05:06:32
(UTC+00:00)

Cosmos 1151 Rocket - Pass Details

Date: 17 February 2020
Orbit: 592 x 616 km, 82.5° (Epoch: 09 April)

Event Time Altitude Azimuth Distance (km) Brightness Sun altitude
Rises 05:26:50 0° 171° (S) 2,832 6.7 -10.3°
Reaches altitude 10° 05:29:05 10° 164° (SSE) 1,939 5.9 -9.9°
Maximum altitude 05:33:09 44° 93° (E) 843 4.4 -9.2°
Drops below altitude 10° 05:37:17 10° 21° (NNE) 1,969 5.8 -8.5°
Sets 05:39:36 0° 15° (NNE) 2,882 6.6 -8.1°
